This is the latest recevied weather packets stored in our database for station/object NY3Q. If no packets are shown the sender has not sent any weather packets the latest 10 day(s).
| Time | Temp. | Humidity | Pressure | Rain* | Wind** | Luminosity | Snow |
|---|---|---|---|---|---|---|---|
| 1778066839 | 17.22° C | 94% | 1016.6 hPa | 0 mm | - | 39 W/m² | - |
| 1778066537 | 16.67° C | 94% | 1016.6 hPa | 0 mm | - | 32 W/m² | - |
| 1778066234 | 16.67° C | 94% | 1016.4 hPa | 0 mm | - | 27 W/m² | - |
| 1778065933 | 16.11° C | 94% | 1016.4 hPa | 0 mm | - | 25 W/m² | - |
| 1778065629 | 16.11° C | 93% | 1016.2 hPa | 0 mm | - | 19 W/m² | - |
| 1778065327 | 16.11° C | 93% | 1016.4 hPa | 0 mm | - | 14 W/m² | - |
| 1778065023 | 16.11° C | 93% | 1016.3 hPa | 0 mm | - | 9 W/m² | - |
| 1778064720 | 16.11° C | 93% | 1016.2 hPa | 0 mm | - | 6 W/m² | - |
| 1778064418 | 16.11° C | 93% | 1016.3 hPa | 0 mm | - | 3 W/m² | - |
| 1778064115 | 16.11° C | 93% | 1016.3 hPa | 0 mm | - | 2 W/m² | - |
| 1778063812 | 16.11° C | 93% | 1016.1 hPa | 0 mm | - | 1 W/m² | - |
| 1778063509 | 16.11° C | 93% | 1015.9 hPa | 0 mm | - | 1 W/m² | - |
| 1778063207 | 16.11° C | 93% | 1015.9 hPa | 0 mm | - | 0 W/m² | - |
| 1778062904 | 16.11° C | 93% | 1016 hPa | 0 mm | - | 0 W/m² | - |
| 1778062601 | 15.56° C | 93% | 1016.1 hPa | 0 mm | - | 0 W/m² | - |
| 1778062298 | 15.56° C | 93% | 1015.9 hPa | 0 mm | - | 0 W/m² | - |
| 1778061997 | 15.56° C | 93% | 1015.9 hPa | 0 mm | - | 0 W/m² | - |
| 1778061694 | 15.56° C | 93% | 1016.2 hPa | 0 mm | - | 0 W/m² | - |
| 1778061393 | 15.56° C | 92% | 1016.1 hPa | 0 mm | - | 0 W/m² | - |
| 1778061089 | 15.56° C | 92% | 1016.1 hPa | 0 mm | - | 0 W/m² | - |
| 1778060786 | 15.56° C | 92% | 1016.1 hPa | 0 mm | - | 0 W/m² | - |
| 1778060484 | 15.56° C | 92% | 1016.1 hPa | 0 mm | - | 0 W/m² | - |
| 1778060182 | 15.56° C | 92% | 1016.2 hPa | 0 mm | - | 0 W/m² | - |
| 1778059879 | 15.56° C | 92% | 1015.9 hPa | 0 mm | - | 0 W/m² | - |
| 1778059577 | 15.56° C | 92% | 1016 hPa | 0 mm | - | 0 W/m² | - |
* Rain latest hour (hover to see other rain measurements)
** Current wind speed in m/s (hover to see current wind gust speed)